TimePDT,TemperatureF,Dew PointF,Humidity,Sea Level PressureIn,VisibilityMPH,Wind Direction,Wind SpeedMPH,Gust SpeedMPH,PrecipitationIn,Events,Conditions,WindDirDegrees,DateUTC
12:53 AM,33.1,18.0,54,29.93,10.0,NW,3.5,-,N/A,,Clear,320,2012-10-11 07:53:00
1:53 AM,33.1,19.0,56,29.93,10.0,NW,3.5,-,N/A,,Clear,320,2012-10-11 08:53:00
2:53 AM,37.0,21.9,54,29.93,9.0,WNW,4.6,-,N/A,,Clear,290,2012-10-11 09:53:00
3:53 AM,32.0,21.0,64,29.94,10.0,Calm,Calm,-,N/A,,Clear,0,2012-10-11 10:53:00
4:53 AM,28.9,18.0,64,29.94,10.0,Calm,Calm,-,N/A,,Clear,0,2012-10-11 11:53:00
5:53 AM,30.9,21.0,67,29.96,10.0,Calm,Calm,-,N/A,,Clear,0,2012-10-11 12:53:00
6:53 AM,26.1,16.0,66,30.01,10.0,North,4.6,-,N/A,,Clear,350,2012-10-11 13:53:00
7:53 AM,34.0,19.9,56,30.01,10.0,West,3.5,-,N/A,,Clear,270,2012-10-11 14:53:00
8:53 AM,46.9,24.1,41,30.00,10.0,Calm,Calm,-,N/A,,Clear,0,2012-10-11 15:53:00
9:53 AM,54.0,28.0,37,29.99,10.0,Calm,Calm,-,N/A,,Clear,0,2012-10-11 16:53:00
10:53 AM,60.1,27.0,28,29.96,10.0,Calm,Calm,-,N/A,,Clear,0,2012-10-11 17:53:00
11:53 AM,66.9,28.0,23,29.94,10.0,ENE,4.6,-,N/A,,Clear,60,2012-10-11 18:53:00
1:53 PM,73.0,24.1,16,29.90,10.0,Variable,4.6,-,N/A,,Clear,0,2012-10-11 20:53:00
2:53 PM,75.0,23.0,14,29.86,10.0,SSE,3.5,-,N/A,,Clear,160,2012-10-11 21:53:00
3:53 PM,75.0,23.0,14,29.86,10.0,Calm,Calm,-,N/A,,Clear,0,2012-10-11 22:53:00
4:53 PM,73.0,19.9,14,29.86,10.0,Calm,Calm,-,N/A,,Clear,0,2012-10-11 23:53:00
5:53 PM,71.1,21.0,15,29.85,10.0,Calm,Calm,-,N/A,,Clear,0,2012-10-12 00:53:00
6:53 PM,53.1,18.0,25,29.89,10.0,Calm,Calm,-,N/A,,Clear,0,2012-10-12 01:53:00
7:53 PM,44.1,17.1,34,29.90,10.0,NNW,5.8,-,N/A,,Clear,340,2012-10-12 02:53:00
8:53 PM,39.9,16.0,38,29.89,10.0,Calm,Calm,-,N/A,,Clear,0,2012-10-12 03:53:00
9:53 PM,45.0,19.9,37,29.86,10.0,West,8.1,-,N/A,,Clear,260,2012-10-12 04:53:00
10:53 PM,39.0,19.9,46,29.87,10.0,West,6.9,-,N/A,,Clear,280,2012-10-12 05:53:00
11:53 PM,33.1,17.1,52,29.87,10.0,West,4.6,-,N/A,,Clear,280,2012-10-12 06:53:00